Preview of NWS' New Version of Forecast
This preview is not operational and should not be used for support decisions.

Regional Weather Roundup (RWR)

Issued by National Weather Service (NWS)

                            
000
ASCA42 TJSJ 211210
RWRPR 
PUERTO RICO/U.S. VIRGIN ISLANDS HOURLY WEATHER ROUNDUP
NATIONAL WEATHER SERVICE SAN JUAN PR
800 AM AST SUN JUL 21 2019

PRZ001>002-007>008-010-211300-
PUERTO RICO
  
CITY           SKY/WX    TMP DP  RH WIND       PRES   REMARKS
SAN JUAN LMM   MOSUNNY   82  75  78 SE7       30.01R                  
AGUADILLA      SUNNY     79  72  78 CALM      30.03S                  
CEIBA          MOSUNNY   84  75  74 E10       30.03R HX  92           
$$

VIZ001>002-211300-
U.S. VIRGIN ISLANDS
  
CITY           SKY/WX    TMP DP  RH WIND       PRES   REMARKS
CHARLOTTE AMA  SUNNY     84  73  70 E9        30.01R HX  91           
CHRISTIANSTED  MOSUNNY   82  73  74 E14       30.01R                  
$$

HOURLY WEATHER ROUNDUP FOR THE NEWS MEDIA
  
CITY           SKY/WX    TMP DP  RH WIND       PRES   REMARKS
ORLANDO        FAIR      80  76  87 NE5       30.09R                  
NEW YORK       FAIR      87  76  69 W13       29.83R HX  97           
NEWARK         FAIR      86  74  67 SW10      29.82R HX  94           
CHICAGO        CLOUDY    69  67  93 NE8       29.94R THUNDER          
HARTFORD       FAIR      84  74  71 W7        29.73S HX  91           
BOSTON         FAIR      87  70  56 W12       29.71S HX  92           
DALLAS         PTCLDY    80  69  69 S8        29.96R                  
PHILADELPHIA   FAIR      86  74  67 VRB6      29.86R HX  94           
LOS ANGELES    MOCLDY    63  59  87 SW7       29.91R                  
WASHINGTON DC  FAIR      83  72  69 CALM      29.92R